Location: Orson Pratt Observatory
(40.2472°N, 111.6506°W)
Time: 14:51:46
(UTC-06:00)

PicSat - Visible Passes

Search period start: 21 April 2019 00:00
Search period end: 01 May 2019 00:00
Orbit: 486 x 502 km, 97.5° (Epoch: 21 April)

Date Brightness Start Highest point End Pass type
(mag) Time Alt. Az. Time Alt. Az. Time Alt. Az.
21 Apr ? 22:04:39 14° NE 22:04:39 14° NE 22:05:49 10° NNE visible
21 Apr ? 23:39:12 16° NW 23:39:12 16° NW 23:40:10 10° NW visible
22 Apr ? 23:17:26 24° NNW 23:17:26 24° NNW 23:19:00 10° NNW visible
23 Apr ? 22:55:41 29° N 22:55:41 29° N 22:57:34 10° N visible
24 Apr ? 22:33:55 25° NNE 22:33:55 25° NNE 22:35:52 10° N visible
25 Apr ? 22:12:08 18° NE 22:12:08 18° NE 22:13:52 10° NNE visible
25 Apr ? 23:46:42 16° NW 23:46:42 16° NW 23:47:41 10° NW visible
26 Apr ? 21:50:22 11° ENE 21:50:22 11° ENE 21:50:57 10° NE visible
26 Apr ? 23:24:55 25° NW 23:24:55 25° NW 23:26:38 10° NNW visible
27 Apr ? 23:03:08 34° N 23:03:08 34° N 23:05:16 10° NNW visible
28 Apr ? 22:41:22 32° NNE 22:41:22 32° NNE 22:43:40 10° N visible
29 Apr ? 22:19:35 22° NE 22:19:35 22° NE 22:21:45 10° NNE visible
29 Apr ? 23:54:08 15° WNW 23:54:08 15° WNW 23:55:06 10° NW visible
30 Apr ? 21:57:48 13° ENE 21:57:48 13° ENE 21:59:20 10° NE visible
30 Apr ? 23:32:21 24° NW 23:32:21 24° NW 23:34:11 10° NNW visible
